Flag for U.S.A. Weather past 2 weeks in Gloucester, Massachusetts, U.S.A.

44 °F


Feels Like: 40 °F
Forecast: 46 / 55 °F
Wind: 8 mph from Northwest

Location: Beverly Municipal Airport

Current Time: Oct 10, 2015 at 7:43:09 AM

Latest Report: Oct 10, 2015 at 6:53 AM

Visibility: 10 mi

Pressure: 29.98 "Hg

Humidity: 76%

Dew point: 37 °F

Location of GloucesterLocation

Historic Weather in Gloucester — Graph


Gloucester temperature yesterday

Maximum temperature yesterday: 69 °F (at 12:53 PM)
Minimum temperature yesterday: 48 °F (at 4:53 AM)
Average temperature yesterday: 60 °F

Past Weeks' High & Low Weather Summary

High79 °F (Sep 29, 11:53 AM)97% (Sep 28, 5:00 AM)30.52 "Hg (Sep 28, 5:00 AM)
Low35 °F (Sep 27, 5:53 AM)36% (Oct 8, 1:00 PM)29.62 "Hg (Sep 30, 1:53 PM)
Average56 °F75%30.16 "Hg
* Reported Sep 25 5:53 AM — Oct 10 5:53 AM, Gloucester, Weather by CustomWeather, © 2015

Note: Actual official high and low records may vary slightly from our data, if they occured in-between our weather recording intervals... More about our weather records


Gloucester weather history for previous 24 hours

Time TempWeatherWind HumidityBarometerVisibility
5:53 AM
Sat, Oct 10
47 °FClear.8 mph71%29.96 "Hg10 mi
4:53 AM47 °FClear.7 mph69%29.94 "Hg10 mi
3:53 AM49 °FClear.23 mph71%29.90 "Hg10 mi
2:53 AM49 °FPassing clouds.13 mph74%29.87 "Hg10 mi
1:53 AM50 °FClear.17 mph77%29.84 "Hg10 mi
12:53 AM53 °FClear.21 mph80%29.80 "Hg10 mi
11:53 PM
Fri, Oct 9
60 °FOvercast.15 mph86%29.76 "Hg10 mi
10:53 PM61 °FPassing clouds.9 mph87%29.71 "Hg10 mi
9:53 PM63 °FMostly cloudy.8 mph87%29.69 "Hg10 mi
8:53 PM63 °FPassing clouds.9 mph87%29.69 "Hg10 mi
7:53 PM64 °FLight rain. Overcast.9 mph90%29.69 "Hg9 mi
6:53 PM64 °FLight rain. Fog.7 mph90%29.69 "Hg6 mi
5:53 PM64 °FLight rain. Cloudy.5 mph87%29.70 "Hg8 mi
4:53 PM64 °FLight rain. Fog.3 mph87%29.71 "Hg6 mi
3:53 PM65 °FLight rain. Mostly cloudy.10 mph81%29.72 "Hg3 mi
2:53 PM67 °FLight rain. Overcast.13 mph68%29.73 "Hg8 mi
1:53 PM69 °FMostly cloudy.17 mph59%29.75 "Hg10 mi
12:53 PM69 °FMostly cloudy.16 mph61%29.79 "Hg10 mi
11:53 AM66 °FMore clouds than sun.12 mph68%29.84 "Hg10 mi
10:53 AM64 °FMostly cloudy.10 mph70%29.89 "Hg10 mi
9:53 AM62 °FPartly sunny.10 mph73%29.93 "Hg10 mi
8:53 AM58 °FPartly sunny.7 mph87%29.98 "Hg10 mi
7:53 AM56 °FCloudy.9 mph90%30.00 "Hg10 mi
Weather by CustomWeather, © 2015

See weather overviewHow to use our weather pages